[[{"header":{"parameterUnit":"m.s-1","parameterCategory":1,"la1":30.2991,"la2":30.254,"lo1":-89.0895,"lo2":-89.0444,"dy":0.0017,"dx":0.0017,"nx":28,"ny":28,"refTime":"2024-12-01T03:00:00:Z","depth":0,"parameterNumber":2,"parameterNumberName":"U-component_of_WINDS"},"data":[0,0,0,0,0,0,0,0,0,0,0,0,0,0,0,0,0,0,0,0,0,0,0,0,0,0,0,0,0,0,0,0,0,0,0,0,0,0,0,0,0,0,0,0,0,0,0,0,0,0,0,0,0,0,0,0,0,0,1.1697,1.1698,0,1.1746,1.1747,1.1748,1.1817,1.1818,1.182,1.1821,1.187,1.187,1.187,0,0,0,0,0,0,0,0,0,0,0,0,0,1.1663,1.1663,1.1697,1.1698,1.1698,1.1746,1.1747,1.1748,1.1817,1.1818,1.182,1.1821,1.187,1.187,1.187,0,0,0,0,0,0,0,0,0,0,0,0,0,1.1691,1.1663,1.1697,1.1739,1.1743,1.1746,1.1747,1.1748,1.1817,1.1818,1.182,1.1822,1.187,1.187,1.187,1.1836,0,0,1.1871,1.1871,0,0,0,0,0,0,0,0,1.169,1.1693,1.1732,1.1736,1.1741,1.1778,1.1753,1.1777,1.1816,1.1789,1.1821,1.1823,1.1838,1.1841,1.1846,1.1838,1.184,1.1871,1.1871,1.1871,1.1871,0,0,0,0,0,0,0,1.1688,1.1691,1.1717,1.1733,1.1738,1.1755,1.1761,1.1758,1.1802,1.1791,1.1796,1.1801,1.184,1.1845,1.1847,1.1841,1.1871,1.1871,1.1871,1.1872,1.1808,1.1806,0,0,0,0,0,0,1.168,1.1689,1.1715,1.1718,1.1719,1.1754,1.1761,1.1764,1.1803,1.181,1.18,1.1804,1.1844,1.1847,1.1849,1.1812,1.1871,1.1872,1.1872,1.181,1.1808,1.1806,0,0,0,0,0,0,1.1678,1.1681,1.1713,1.1705,1.171,1.1753,1.1756,1.1764,1.1769,1.1809,1.1817,1.1797,1.1846,1.1849,1.1839,1.1814,1.1872,1.1872,1.1812,1.1809,1.1807,1.1736,0,0,0,0,0,0,1.1677,1.168,1.1668,1.1704,1.171,1.1702,1.1754,1.1764,1.177,1.1776,1.1808,1.1816,1.1847,1.1838,1.1839,1.1816,1.1872,1.1815,1.1811,1.1808,1.174,1.1731,1.1722,0,0,0,0,0,1.1676,1.1646,1.1667,1.167,1.1696,1.17,1.1704,1.1741,1.1767,1.1755,1.1781,1.1815,1.1817,1.1836,1.1838,1.1814,1.1816,1.1812,1.1808,1.1744,1.1733,1.1723,0,0,0,0,0,0,1.1605,1.1651,1.1675,1.1656,1.1674,1.1712,1.1697,1.1728,1.1738,1.1743,1.1789,1.1796,1.178,1.1797,1.1817,1.1784,1.1822,1.1818,1.1773,1.1762,1.1753,1.1749,1.1872,0,0,0,0,0,1.1587,1.1587,1.1628,1.1607,1.1615,1.1654,1.1658,1.1685,1.1705,1.1712,1.1738,1.1755,1.176,1.1762,1.1769,1.1744,1.1751,1.1728,1.1719,1.1712,1.1707,1.1695,1.1685,1.1792,1.1792,1.1792,0,0,1.155,1.1576,1.1573,1.1593,1.161,1.1609,1.166,1.1656,1.1656,1.1712,1.1704,1.1723,1.1746,1.1727,1.1721,1.1741,1.168,1.1707,1.17,1.17,1.1689,1.1679,1.167,1.1789,1.179,1.179,0,0,1.1482,1.1502,1.1486,1.1502,1.1527,1.1554,1.155,1.1584,1.1599,1.1592,1.1634,1.1634,1.1642,1.1656,1.1664,1.1602,1.1633,1.1603,1.1556,1.1543,1.1535,1.1527,1.1504,1.1496,1.1599,1.1599,1.1599,0,1.1433,1.1433,1.1474,1.1468,1.1476,1.1528,1.1512,1.1526,1.1551,1.1555,1.1578,1.1588,1.1607,1.1593,1.1578,1.1583,1.158,1.1599,1.1533,1.1526,1.152,1.1498,1.1489,1.1595,1.1595,1.1596,1.1596,0,1.137,1.137,1.1354,1.1378,1.1384,1.1373,1.1413,1.1414,1.1442,1.1466,1.1457,1.1483,1.1495,1.1494,1.152,1.1483,1.1495,1.1524,1.1564,1.1505,1.1485,1.1477,1.1589,1.1591,1.1592,1.1593,0,0,1.1257,1.1305,1.1299,1.131,1.1342,1.1342,1.1334,1.1347,1.1346,1.1363,1.1356,1.1362,1.1389,1.1399,1.1427,1.1416,1.1364,1.1447,1.1449,1.143,1.1324,1.1301,1.129,1.1386,1.1385,1.1384,1.1322,0,1.1194,1.1183,1.122,1.1199,1.1198,1.1248,1.1241,1.1259,1.1282,1.1285,1.131,1.1313,1.135,1.1355,1.1347,1.1372,1.1344,1.1378,1.1379,1.1379,1.137,1.128,1.1256,1.1196,1.1315,1.1313,1.1312,0,1.1119,1.1132,1.111,1.1143,1.1145,1.1137,1.1152,1.1154,1.1176,1.1194,1.1204,1.1238,1.1232,1.127,1.1262,1.1284,1.1287,1.13,1.1299,1.1299,1.1341,1.1277,1.1178,1.1168,1.1301,1.1302,1.1303,0,1.1037,1.1049,1.1038,1.1046,1.1085,1.1078,1.1094,1.1118,1.1124,1.1137,1.114,1.1152,1.1158,1.1167,1.1202,1.1227,1.1189,1.1231,1.1203,1.1202,1.1191,1.1191,1.109,1.1195,1.1196,1.1196,1.1196,0,1.0962,1.0946,1.1001,1.0994,1.0978,1.1022,1.1005,1.1026,1.1047,1.1044,1.1089,1.1085,1.1133,1.1135,1.1163,1.1151,1.1154,1.1167,1.1174,1.1162,1.116,1.1164,1.1168,1.1193,1.1194,1.1194,1.1195,0,1.0867,1.0903,1.0894,1.0932,1.0941,1.0928,1.096,1.0955,1.0981,1.0977,1.0979,1.1019,1.1023,1.106,1.1073,1.1092,1.1069,1.1085,1.1061,1.1066,1.1035,1.1036,1.0931,1.0919,1.1033,1.1032,1.1031,0,1.0816,1.0805,1.0842,1.0844,1.0858,1.086,1.0865,1.0909,1.0913,1.0937,1.0929,1.0937,1.0945,1.095,1.098,1.099,1.1006,1.0968,1.1008,1.0996,1.1004,1.1003,1.1002,1.0959,1.0958,1.0957,1.0956,0,1.072,1.0739,1.0746,1.0759,1.0765,1.0777,1.0792,1.0791,1.0838,1.0841,1.0846,1.0852,1.0866,1.0873,1.0888,1.0904,1.0937,1.0943,1.0937,1.0924,1.091,1.0915,1.1037,1.0945,1.0946,1.0947,1.0948,1.0948,1.0645,1.0638,1.0663,1.0669,1.0685,1.0698,1.0694,1.072,1.0726,1.074,1.0765,1.0766,1.0789,1.0813,1.0827,1.0828,1.0848,1.0839,1.0836,1.0833,1.0826,1.0911,1.0831,1.0832,1.0832,1.0832,1.0832,0,1.0551,1.057,1.0575,1.0595,1.0599,1.0632,1.065,1.0651,1.0652,1.0671,1.0679,1.0684,1.0692,1.0723,1.0734,1.0729,1.0744,1.073,1.073,1.0733,1.0809,1.0812,1.0717,1.0717,1.0717,1.0717,1.0717,1.0717,1.0502,1.0491,1.0513,1.0511,1.053,1.0531,1.0539,1.0551,1.0566,1.0571,1.0577,1.0598,1.0622,1.0635,1.0642,1.0652,1.0653,1.0633,1.0647,1.0716,1.0727,1.0738,1.0742,1.0633,1.0633,1.0571,1.057,1.057]},{"header":{"parameterUnit":"m.s-1","parameterCategory":1,"la1":30.2991,"la2":30.254,"lo1":-89.0895,"lo2":-89.0444,"dy":0.0017,"dx":0.0017,"nx":28,"ny":28,"refTime":"2024-12-01T03:00:00:Z","depth":0,"parameterNumber":3,"parameterNumberName":"V-component_of_WINDS"},"data":[0,0,0,0,0,0,0,0,0,0,0,0,0,0,0,0,0,0,0,0,0,0,0,0,0,0,0,0,0,0,0,0,0,0,0,0,0,0,0,0,0,0,0,0,0,0,0,0,0,0,0,0,0,0,0,0,0,0,0.0287,0.0287,0,0.0279,0.0279,0.0279,0.0287,0.0287,0.0288,0.0288,0.028,0.0279,0.0279,0,0,0,0,0,0,0,0,0,0,0,0,0,0.0308,0.0307,0.0287,0.0287,0.0287,0.0279,0.0279,0.0279,0.0287,0.0287,0.0288,0.0288,0.028,0.028,0.0279,0,0,0,0,0,0,0,0,0,0,0,0,0,0.0299,0.0307,0.0287,0.029,0.029,0.0279,0.0279,0.0279,0.0287,0.0287,0.0288,0.0288,0.028,0.028,0.0279,0.0265,0,0,0.0277,0.0276,0,0,0,0,0,0,0,0,0.03,0.0298,0.0289,0.0289,0.029,0.0284,0.0284,0.0274,0.0287,0.0288,0.0288,0.0288,0.0281,0.028,0.0278,0.0265,0.0264,0.0277,0.0276,0.0276,0.0276,0,0,0,0,0,0,0,0.03,0.0299,0.0284,0.0289,0.0289,0.0291,0.029,0.0282,0.0282,0.0288,0.0288,0.0287,0.0281,0.0279,0.0278,0.0264,0.0277,0.0276,0.0275,0.0275,0.0238,0.0237,0,0,0,0,0,0,0.0301,0.0299,0.0284,0.0284,0.0296,0.029,0.029,0.0286,0.0282,0.0282,0.0287,0.0288,0.028,0.0279,0.0277,0.026,0.0276,0.0275,0.0275,0.0238,0.0238,0.0237,0,0,0,0,0,0,0.0301,0.0299,0.0284,0.0292,0.029,0.029,0.0285,0.0285,0.0283,0.0281,0.0282,0.0284,0.028,0.0279,0.0268,0.026,0.0275,0.0274,0.0239,0.0238,0.0237,0.0225,0,0,0,0,0,0,0.0302,0.0299,0.0294,0.0291,0.0289,0.0275,0.0285,0.0285,0.0281,0.0282,0.0279,0.0279,0.028,0.0269,0.0267,0.0259,0.0273,0.024,0.0239,0.0238,0.0226,0.0224,0.0222,0,0,0,0,0,0.0302,0.0291,0.0294,0.0292,0.0283,0.0274,0.0273,0.0275,0.0281,0.0275,0.0274,0.0279,0.0261,0.0268,0.0266,0.0257,0.024,0.0239,0.0238,0.0227,0.0224,0.0222,0,0,0,0,0,0,0.0294,0.0291,0.0294,0.0282,0.0278,0.0276,0.0269,0.0272,0.0267,0.0268,0.0271,0.027,0.0258,0.0257,0.0264,0.0243,0.0251,0.025,0.0244,0.0242,0.0239,0.024,0.0273,0,0,0,0,0,0.029,0.0284,0.0282,0.0271,0.0269,0.0269,0.0266,0.0267,0.0264,0.0262,0.0261,0.0257,0.025,0.0246,0.024,0.0226,0.0225,0.022,0.0217,0.0216,0.0214,0.0205,0.0202,0.0233,0.0233,0.0233,0,0,0.0283,0.0281,0.0277,0.0269,0.0267,0.0259,0.0268,0.026,0.0255,0.0261,0.025,0.0249,0.0245,0.0232,0.0227,0.0231,0.0205,0.0214,0.0213,0.0212,0.0204,0.0201,0.0198,0.0232,0.0232,0.0232,0,0,0.0267,0.0265,0.0255,0.0252,0.0248,0.0248,0.0246,0.0242,0.0242,0.0231,0.0235,0.0229,0.0218,0.0214,0.0211,0.0192,0.0195,0.019,0.0179,0.017,0.0168,0.0165,0.0157,0.0154,0.0188,0.0188,0.0188,0,0.0258,0.0247,0.025,0.0241,0.0237,0.0243,0.0232,0.023,0.0224,0.0221,0.0226,0.0211,0.0209,0.0194,0.019,0.0187,0.0184,0.019,0.0168,0.0166,0.0164,0.0156,0.0153,0.0188,0.0188,0.0188,0.0188,0,0.0237,0.0229,0.0222,0.0215,0.0211,0.0202,0.0202,0.0197,0.0199,0.0198,0.0187,0.0184,0.0177,0.0174,0.0176,0.016,0.0162,0.0167,0.0176,0.016,0.0152,0.015,0.0186,0.0187,0.0187,0.0187,0,0,0.0214,0.0209,0.0206,0.0202,0.0198,0.0192,0.0182,0.0175,0.017,0.0166,0.0157,0.0148,0.0152,0.0148,0.015,0.0142,0.0126,0.0148,0.0148,0.0143,0.0106,0.0101,0.0097,0.0128,0.0128,0.0127,0.0106,0,0.0197,0.018,0.0181,0.0165,0.0157,0.0162,0.0154,0.015,0.0149,0.0142,0.0141,0.0133,0.014,0.0138,0.0131,0.0129,0.0118,0.0131,0.0119,0.0119,0.0119,0.0094,0.0089,0.0069,0.0103,0.0102,0.0102,0,0.0173,0.0167,0.015,0.0146,0.0143,0.0135,0.0128,0.0121,0.0117,0.0116,0.0112,0.0114,0.0104,0.0113,0.0099,0.0107,0.0103,0.0101,0.0101,0.0099,0.0109,0.009,0.0062,0.0059,0.0098,0.0098,0.0099,0,0.0157,0.0145,0.0133,0.013,0.0125,0.0119,0.0116,0.0112,0.0107,0.0101,0.0098,0.0091,0.0086,0.0081,0.0081,0.0088,0.0066,0.0075,0.0064,0.0064,0.0058,0.0059,0.0028,0.0058,0.0058,0.0058,0.0058,0,0.0136,0.0125,0.0125,0.0117,0.0105,0.0107,0.0094,0.0093,0.0088,0.008,0.0084,0.0077,0.0078,0.007,0.007,0.0057,0.0056,0.0055,0.0055,0.0054,0.0053,0.005,0.0051,0.0057,0.0057,0.0057,0.0057,0,0.0115,0.0115,0.0102,0.0097,0.0096,0.0087,0.0083,0.0076,0.0075,0.0064,0.0062,0.0061,0.0051,0.0051,0.0041,0.0041,0.0025,0.0027,0.0026,0.0026,0.0014,0.0015,-0.002,-0.0026,0.0008,0.0008,0.0008,0,0.0101,0.0093,0.0087,0.0082,0.0079,0.007,0.0065,0.0066,0.0061,0.0054,0.0047,0.0038,0.0031,0.0016,0.0013,0.0005,0.0006,-0.0005,0.0005,0.0004,0.0004,0.0004,0.0003,-0.0008,-0.0008,-0.0008,-0.0009,0,0.0076,0.0076,0.0068,0.006,0.0054,0.0048,0.0042,0.0037,0.0038,0.0031,0.0021,0.0016,0.0005,-0.0005,-0.0013,-0.0016,-0.0013,-0.0012,-0.0015,-0.0017,-0.0018,-0.0019,0.0019,-0.0011,-0.0011,-0.0011,-0.0011,-0.0011,0.0057,0.0049,0.0044,0.0035,0.0031,0.0025,0.0017,0.0015,0.0007,-0.0002,-0.0001,-0.0012,-0.0018,-0.0029,-0.0032,-0.0041,-0.0037,-0.0042,-0.0043,-0.0044,-0.0046,-0.0015,-0.0043,-0.0042,-0.0042,-0.0042,-0.0042,0,0.0031,0.0028,0.0019,0.0011,0.0003,0.0007,0.0001,-0.0006,-0.0016,-0.0021,-0.0029,-0.0041,-0.005,-0.0053,-0.0062,-0.0069,-0.0068,-0.0072,-0.0072,-0.0073,-0.0049,-0.0046,-0.0073,-0.0073,-0.0073,-0.0073,-0.0073,-0.0073,0.0017,0.0003,0.0002,-0.0014,-0.0017,-0.0029,-0.0033,-0.0038,-0.0043,-0.0057,-0.0064,-0.0066,-0.0071,-0.0081,-0.009,-0.009,-0.0095,-0.0099,-0.01,-0.0077,-0.0074,-0.0072,-0.0069,-0.01,-0.01,-0.0123,-0.0124,-0.0124]}]]